Location: Le Rocchette
(44.3500°N, 7.8333°E)
Time: 03:18:39
(UTC+00:00)

CZ-4C R/B - Pass Details

Date: 17 November 2019
Orbit: 650 x 1352 km, 63.4° (Epoch: 05 December)

Event Time Altitude Azimuth Distance (km) Brightness Sun altitude
Exits shadow 05:17:49 - 325° (NW) 2,873 4.5 -12.4°
Reaches altitude 10° 05:18:57 10° 334° (NNW) 2,693 4.4 -12.2°
Maximum altitude 05:22:13 14° 5° (N) 2,521 4.6 -11.6°
Drops below altitude 10° 05:25:45 10° 36° (NE) 2,958 5.3 -11.0°
Sets 05:30:18 0° 59° (ENE) 4,076 6.4 -10.2°
